Location: Unspecified
(44.4377°N, 88.0525°W)
Time: 13:00:13
(UTC-05:00)

CZ-3 Stage 3 - Visible Passes

Search period start: 20 September 2014 00:00
Search period end: 30 September 2014 00:00
Orbit: 410 x 34836 km, 30.7° (Epoch: 16 September)

Date Brightness Start Highest point End Pass type
(mag) Time Alt. Az. Time Alt. Az. Time Alt. Az.
21 Sep 7.0 01:22:05 10° S 08:17:57 49° S 08:28:53 10° ESE visible
21 Sep 8.4 23:39:57 10° SE 04:13:52 36° SSE 04:51:03 10° E visible
24 Sep 6.9 01:14:03 10° S 08:15:28 50° S 08:26:06 10° ESE visible
24 Sep 8.4 23:24:27 10° SE 04:12:14 38° SSE 04:48:39 10° E visible
27 Sep 6.8 01:06:16 10° S 08:12:48 51° S 08:23:09 10° ESE visible
27 Sep 8.3 23:09:09 10° SE 04:10:25 40° SSE 04:46:02 10° E visible
